Regional Weather Roundup
Issued by NWS Kansas City/Pleasant Hill, MO

Home | Current Version | Previous Version | Text Only | Print | Product List | Glossary On
Versions: 1 2 3 4 5 6 7 8 9 10 11 12 13 14 15 16 17 18 19 20 21 22 23 24 25 26 27 28 29 30 31 32 33 34 35 36 37 38 39 40 41 42 43 44 45 46 47 48 49 50
000
ASUS43 KEAX 240710
RWREAX

WEATHER ROUNDUP FOR EASTERN KANSAS AND NORTHWEST MISSOURI
NATIONAL WEATHER SERVICE KANSAS CITY/PLEASANT HILL MO
200 AM CDT FRI OCT 24 2014

KSZ040-057-103>105-MOZ028-029-037-043-240800-
...KANSAS CITY METROPOLITAN AREA...

CITY           SKY/WX    TMP DP  RH WIND       PRES   REMARKS
K.C. INTL      MOCLDY    56  56 100 S9        30.07F FOG
K.C. DOWNTOWN  MOCLDY    58  56  93 SW3       30.08S FOG
LEES SUMMIT    MOCLDY    56  55  97 SW5       30.09S FOG
OLATHE - IXD   FOG       56  56 100 S7        30.09F VSB 1/4
OLATHE - OJC   CLOUDY    57  57 100 S8        30.08F FOG
LAWRENCE       MOCLDY    54  53  97 S3        30.08S FOG

$$

MOZ001>008-011>017-020>025-030>033-038>040-044>046-053-054-240800-
...NORTHERN AND CENTRAL MISSOURI...

CITY           SKY/WX    TMP DP  RH WIND       PRES   REMARKS
ST. JOSEPH     MOCLDY    55  54  96 S6        30.06F FOG
MOSBY          FOG       54  54 100 CALM      30.08S VSB 1/4
WHITEMAN AFB   MOCLDY    59  57  93 SW10      30.09F
CLINTON        MOCLDY    57  57 100 CALM      30.11S FOG
SEDALIA        CLOUDY    62  57  83 SW5       30.11S
WARSAW         NOT AVBL
MARSHALL       PTCLDY    59  59 100 SW5       30.09F FOG
CHILLICOTHE      N/A     57  56  96 S5        30.08S
MOBERLY        FOG       54  50  87 SW5       30.08F VSB 1/4
KIRKSVILLE     FOG       57  57 100 W7        30.07F VSB 1/4

$$

MOZ041-047>049-056>058-063>065-088>090-097-240800-
...EASTERN AND SOUTHERN MISSOURI...

CITY           SKY/WX    TMP DP  RH WIND       PRES   REMARKS
ST. LOUIS INTL PTCLDY    57  47  69 SW3       30.08F
SPIRIT OF STL  CLEAR     53  48  83 CALM      30.08S
COLUMBIA       FOG       51  51 100 SW5       30.10S VSB 1/4
JEFFERSON CITY PTCLDY    50  49  96 CALM      30.10R
MEXICO         CLEAR    N/A N/A N/A SW5       30.09S
ROLLA          CLOUDY    54  48  80 SW7       30.09F
LEBANON        CLOUDY    54  52  94 W6        30.12F
OSAGE BEACH    CLOUDY    59  54  82 W3        30.10F
SPRINGFIELD    PTCLDY    52  50  93 S8        30.11F FOG
BRANSON        MOCLDY    50  50 100 CALM      30.14F
NEVADA           N/A     52  52 100 CALM      30.12S FOG
JOPLIN         CLEAR     51  51 100 SE6       30.12S FOG
WEST PLAINS    MOCLDY    51  46  83 W3        30.13F

$$

IAZ060-094-KSZ022-034>040-054-083-096-NEZ052-066-093-240800-
...KANSAS...SOUTHEAST NEBRASKA AND IOWA...

CITY           SKY/WX    TMP DP  RH WIND       PRES   REMARKS
TOPEKA         MOCLDY    59  58  96 S8        30.07S FOG
MANHATTAN      FOG       54  54 100 CALM      30.05S VSB 1/4
EMPORIA        CLOUDY    57  57 100 S14       30.08S FOG
CHANUTE        MOCLDY    55  54  96 SE6       30.11R FOG
WICHITA        PTCLDY    61  57  87 S9        30.06F
OMAHA          PTCLDY    55  50  83 SE10      30.00S
LINCOLN        CLEAR     54  51  90 S6        30.00F
FALLS CITY     MOCLDY    59  58  96 S10       30.02F FOG
LAMONI         FOG       58  57  97 SW9       30.04F VSB 1/4
DES MOINES     FOG       52  51  97 S5        30.03S VSB 1/8

$$




USA.gov is the U.S. government's official web portal to all federal, state and local government web resources and services.